Portada
METAR-TAF:

METAR-TAF

Aeroports :

Benton Harbor, Michigan, Estats Units d'Amèrica

latitud: 42-07-43N, longitud: 086-25-42W, altitud: 196 m

Observació

L'informe es va fer fa 37 minuts, a les 17:53 UTC
Vent 11 kt del Oest
Temperatura 28°C
Humitat 48%
Pressió 1013 hPa
Visibilitat: 16.1 km
Cel clar

METAR: KBEH 251753Z AUTO 27011KT 10SM CLR 28/16 A2992 RMK AO2 SLP129 T02830161 10283 20194 56008 $

Hora: 14:30 (18:30 UTC)


TAF: manca

Observacions i pronòstics meteorològics de més de 4000 aeroports (METAR i TAF).

Les estacions disponibles són els punts grocs i vermells al mapa.

Posi el ratolí al punt desitjat per veure el nom de l'estació.

Feu clic per veure les observacions i els pronòstics meteorològics.

Per canviar el mapa: feu clic els botons verds amb una creu de color negre per apropar; al botó verd amb un guió per allunyar la imatge; o en les fletxes verdes per a mapes adjacents.


METAR-TAF: